sat.trackr.live / text

‹ back to catalog

COSMOS 2570

NORAD 58148 · 2023-165A

PAYLOAD ACTIVE UNKNOWN

§ Identity

Operator
Country
CIS
Launch date
2023-10-27
Launch site
PLMSC
Launch vehicle
Mass (kg)
RCS (m²)

External: N2YO · Heavens-Above · Gunter

§ Orbital elements

Epoch: 2026-09-21T22:22:28.285248Z

Period
103.10 min
Inclination
67.1493°
Eccentricity
0.0006701
Mean motion
13.96676848 rev/d
Perigee alt
900.4 km
Apogee alt
910.2 km
Semi-major
7,283.5 km
B*
1.1669e-5
RAAN
54.2961°
Arg perigee
267.0534°
Mean anomaly
92.9784°
Rev number
14,814

§ Raw data

COSMOS 25701 58148U 23165A   26264.93227182 -.00000059  00000+0  11669-4 0  99982 58148  67.1493  54.2961 0006701 267.0534  92.9784 13.96676848148141

JSON: /api/v1/satellites/58148 · /tle

For live sub-satellite position, see the globe view (requires WebGL).

§ Visibility from observer

Set your observer location to see the next 7 days of passes ≥ 10°. The values pass through the URL so the page stays shareable.

No JS? Fill the form by hand. The geolocation button needs JavaScript.